Temperature
16 16 15 15 15 15 14 14 14 14 14 14 14 14 14 13 13 13 13 13 12 12 12 12 12 12 12 12 11 11 11 11 11 11 10 10 10 10 10 10 10 10 10
16 15 15 15 15 14 14 14 14 14 14 14 14 14 13 13 13 13 13 12 12 12 12 12 12 12 11 11 11 11 11 11 11 10 10 10 10 10 10 10 10 10 10
15 15 15 15 14 14 14 14 14 14 14 13 13 13 13 13 13 12 12 12 12 12 12 12 11 11 11 11 11 11 11 10 10 10 10 10 10 10 10 10 9 9 9
15 15 15 14 14 14 14 14 14 13 13 13 13 13 13 13 12 12 12 12 12 12 11 11 11 11 11 11 10 10 10 10 10 10 10 10 9 9 9 9 9 9 9
15 15 14 14 14 14 14 14 14 13 13 13 13 13 13 12 12 12 12 12 12 11 11 11 11 11 10 10 10 10 10 10 10 9 9 9 9 9 9 9 9 9 9
15 14 14 14 14 14 14 13 13 13 13 13 13 12 12 12 12 12 12 11 11 11 11 11 11 10 10 10 10 10 10 9 9 9 9 9 9 9 9 8 8 8 8
14 14 14 14 14 13 13 13 13 13 13 13 13 12 12 12 12 12 11 11 11 11 11 11 10 10 10 10 10 10 9 9 9 9 9 9 9 9 8 8 8 8 8
14 14 13 13 13 13 13 13 13 12 12 12 12 12 12 12 12 11 11 11 11 11 10 10 10 10 10 10 9 9 9 9 9 9 9 8 8 8 8 8 7 7 7
14 14 13 13 13 13 13 13 12 12 12 12 12 12 12 12 11 11 11 11 11 10 10 10 10 10 10 9 9 9 9 9 9 9 8 8 8 8 8 7 7 7 7
13 13 13 13 13 12 12 12 12 12 12 12 12 11 11 11 11 11 11 10 10 10 10 10 10 9 9 9 9 9 9 9 9 8 8 8 8 8 8 7 7 7 7
13 13 13 12 12 12 12 12 12 11 11 11 11 11 11 11 11 11 10 10 10 10 10 10 10 9 9 9 9 9 8 8 8 8 8 8 8 8 8 7 7 7 6
13 13 12 12 12 12 12 11 11 11 11 11 11 11 11 11 11 10 10 10 10 10 10 10 9 9 9 9 9 8 8 8 8 8 8 8 8 8 7 7 7 7 6
12 12 12 12 12 11 11 11 11 11 11 11 11 11 11 10 10 10 10 10 10 9 9 9 9 9 9 8 8 8 8 8 8 8 7 7 7 7 7 7 6 6 6
12 12 12 12 11 11 11 11 11 11 10 10 10 10 10 10 10 10 9 9 9 9 9 9 9 8 8 8 8 8 8 8 7 7 7 7 7 7 7 6 6 6 6
12 12 11 11 11 11 11 10 10 10 10 10 10 10 10 10 10 9 9 9 9 9 8 8 8 8 8 8 8 8 7 7 7 7 7 7 7 7 6 6 6 5 5
11 11 11 11 11 10 10 10 10 10 9 9 9 9 9 9 9 9 9 9 8 8 8 8 8 8 8 8 8 7 7 7 7 7 7 6 6 6 6 6 5 5 5
11 11 10 10 10 10 10 10 9 9 9 9 9 9 9 9 9 8 8 8 8 8 7 7 7 7 8 7 7 7 7 7 7 7 6 6 6 6 6 5 5 5 5
10 10 10 10 10 9 9 9 9 9 9 9 9 9 9 8 8 8 8 8 7 7 7 7 7 7 7 7 7 7 7 7 6 6 6 6 6 6 5 5 5 4 4
10 10 9 9 9 9 9 9 9 8 8 8 8 8 8 8 8 8 7 7 7 7 7 7 7 7 7 7 7 7 6 6 6 6 6 6 5 5 5 5 4 4 4
9 9 9 9 9 9 8 8 8 8 8 8 8 8 8 8 7 7 7 7 7 7 7 7 7 7 6 6 6 6 6 6 6 5 5 5 5 5 4 4 4 4 3
9 9 9 8 8 8 8 8 8 8 8 7 7 7 7 7 7 7 7 7 7 7 7 6 7 7 6 6 6 6 6 6 5 5 5 5 5 4 4 4 4 3 3
9 8 8 8 8 8 8 7 7 7 7 7 7 7 7 7 7 6 6 6 6 6 6 6 6 6 6 6 6 6 6 5 5 5 5 5 4 4 4 4 3 3 3
8 8 8 8 8 7 7 7 7 7 7 7 6 6 6 6 6 6 6 6 6 6 6 6 6 6 6 6 6 6 6 5 5 5 5 5 4 4 4 3 3 3 3
8 8 7 7 7 7 7 7 7 6 6 6 6 6 6 6 6 6 6 6 6 6 5 5 6 5 6 6 6 5 5 5 5 5 5 4 4 4 4 3 3 3 3
7 7 7 7 7 6 6 6 6 6 6 6 6 6 5 5 5 5 5 5 5 5 5 5 5 5 5 5 5 5 5 5 5 5 4 4 4 4 3 3 3 3 3
7 7 6 6 6 6 6 6 6 6 5 5 5 5 5 5 5 5 5 5 5 5 5 5 5 5 5 5 5 5 5 5 5 4 4 4 4 4 3 3 3 3 2
Wind_Speed
3 3 3 3 3 3 3 3 3 2 3 3 3 3 3 3 3 3 2 2 2 1 1 2 1 2 2 1 1 1 1 2 2 1 1 1 1 1 3 3 3 3 3
3 3 3 3 2 2 2 2 2 3 3 3 3 3 3 3 3 3 3 2 2 2 1 2 1 2 2 1 1 1 1 2 2 2 1 1 1 1 1 2 3 3 3
3 3 3 3 2 2 2 2 3 3 3 3 3 4 3 3 3 3 3 3 3 3 3 3 2 3 2 1 1 1 1 1 1 2 1 1 1 0 1 2 2 3 3
4 4 3 3 3 3 3 2 3 3 3 3 3 3 3 3 3 3 3 3 2 2 2 3 3 4 4 3 2 2 2 2 2 1 1 1 1 1 0 1 2 2 2
4 4 3 3 2 2 2 2 2 3 3 3 3 2 2 3 3 4 4 3 3 2 1 2 3 4 4 4 3 3 3 2 2 1 1 1 1 1 2 1 2 2 2
4 4 3 2 2 2 2 2 2 2 2 2 3 3 3 2 3 6 5 4 3 3 2 2 2 2 3 4 4 5 5 4 4 3 2 3 4 3 2 2 1 0 2
4 3 2 3 2 2 2 3 3 3 3 3 3 3 3 4 5 5 6 4 4 4 4 3 2 2 1 1 2 2 3 5 6 5 4 5 5 5 4 3 3 3 3
3 3 3 3 3 2 2 3 3 3 3 3 4 4 4 4 5 5 5 4 3 4 4 5 4 3 3 3 2 2 3 3 5 5 5 6 6 5 6 4 4 2 1
3 3 3 4 4 3 3 3 3 3 3 4 4 4 5 5 6 6 5 3 3 4 4 4 4 5 6 4 3 3 2 3 4 6 6 6 6 5 5 3 2 1 2
4 4 3 3 4 4 4 3 3 3 4 4 4 4 5 5 6 7 6 3 3 3 3 4 6 6 7 6 5 5 4 4 2 2 2 3 3 4 5 5 5 3 2
4 3 3 3 4 4 3 3 3 3 3 3 4 4 4 6 6 7 7 5 5 4 4 4 5 8 8 7 6 6 7 4 3 2 2 2 2 2 3 4 5 5 4
3 3 3 3 3 3 3 2 2 3 3 4 4 4 4 4 5 6 8 8 6 5 5 5 5 7 8 7 6 6 6 3 2 2 2 3 3 3 3 4 5 5 6
4 4 4 3 3 3 3 3 3 3 4 4 4 4 4 3 4 6 8 8 7 5 5 6 6 6 6 5 6 6 4 3 3 3 4 4 4 4 3 2 2 2 3
4 4 3 3 3 3 3 4 4 4 4 4 4 5 4 3 3 3 4 4 5 5 3 4 4 4 3 3 3 3 3 4 4 4 4 3 2 2 2 2 2 1 1
5 4 4 4 4 3 3 3 4 5 5 5 5 5 5 6 7 7 5 4 4 4 2 1 1 1 2 2 2 3 3 3 3 3 3 3 3 3 3 2 2 2 2
5 4 4 3 3 3 3 2 3 4 5 6 5 5 6 7 7 7 7 7 6 5 3 2 3 4 5 4 4 4 4 4 4 4 4 4 4 4 3 2 2 3 3
5 5 4 3 3 3 3 3 3 3 4 5 6 6 6 6 6 6 7 6 5 6 3 4 5 5 5 5 5 5 5 5 5 5 5 5 4 4 4 3 3 3 4
5 5 4 4 4 4 4 4 4 3 3 4 5 7 7 7 6 6 5 3 2 4 4 5 6 5 5 5 5 5 5 4 4 5 5 5 5 4 4 4 4 4 4
4 4 4 3 3 3 3 3 3 4 4 4 3 4 6 6 5 5 4 4 5 5 6 6 6 5 5 6 5 5 5 5 5 5 5 5 5 5 5 5 5 5 4
4 6 5 3 3 3 3 3 4 4 4 4 4 4 2 1 2 3 4 5 5 6 6 6 6 6 6 6 6 5 5 5 5 5 6 5 5 5 5 6 5 5 5
4 4 6 4 4 4 4 4 4 4 4 5 5 5 5 4 4 5 5 6 6 7 7 6 6 6 6 6 5 6 7 6 6 6 6 6 6 5 5 5 5 5 4
4 4 4 4 4 4 4 4 4 5 5 5 5 4 6 4 4 5 6 6 6 6 6 6 6 6 6 7 7 7 7 7 7 6 6 6 6 6 5 5 5 5 5
4 4 4 4 4 5 5 4 4 5 5 5 5 4 4 4 5 6 6 6 6 5 5 5 5 6 6 7 7 7 8 8 7 7 6 6 6 6 6 6 6 6 6
4 4 5 4 4 4 5 5 5 5 5 5 5 5 5 5 6 6 6 5 5 5 5 5 6 7 9 8 7 8 9 9 9 8 8 7 7 6 6 6 6 7 7
3 4 4 4 5 5 5 5 5 5 5 5 5 5 5 5 5 6 5 5 5 5 6 6 6 7 9 9 8 8 9 10 9 8 7 7 7 7 7 7 6 6 6
3 4 4 4 4 4 5 5 5 5 5 5 5 5 5 5 5 5 5 5 5 5 6 6 7 8 9 9 9 10 10 10 10 10 8 6 6 6 7 6 7 7 6
Wind_Direction
171 164 156 167 165 159 165 181 179 171 159 154 154 141 136 131 128 124 123 121 121 111 107 121 117 119 110 98 99 104 111 131 177 260 278 310 21 8 11 13 3 354 340
162 151 151 149 150 156 173 186 165 156 158 160 153 145 147 144 145 146 152 144 147 154 159 140 147 132 120 130 126 121 150 152 164 200 262 308 278 308 344 350 346 341 321
142 140 142 147 154 172 183 178 164 161 156 148 152 160 165 163 160 162 161 159 167 177 176 170 182 153 158 166 159 157 161 141 146 163 215 242 282 314 356 334 341 335 326
147 148 156 175 183 188 180 170 170 165 161 164 168 175 178 172 169 168 159 160 165 175 183 185 191 186 190 185 183 183 154 126 125 141 195 247 266 278 161 281 319 327 317
160 166 187 189 184 182 175 173 164 164 174 173 167 174 175 177 183 174 170 168 169 173 193 208 213 207 202 192 193 184 162 157 155 171 206 233 254 234 235 225 262 306 303
173 193 188 165 167 180 187 172 160 168 171 161 175 184 194 210 194 178 172 178 180 183 203 231 240 220 219 218 211 193 179 177 186 190 210 223 239 228 214 213 209 290 294
180 188 186 174 175 195 194 169 180 188 179 183 196 197 215 229 207 192 184 182 191 201 205 209 229 226 195 203 223 221 219 216 202 193 206 226 226 216 194 204 210 208 236
182 189 190 186 195 198 189 196 199 196 193 206 213 213 221 236 221 209 195 184 202 214 213 207 210 219 215 199 195 212 238 246 231 213 215 231 229 210 192 195 200 208 268
184 199 200 193 196 195 202 216 214 199 210 218 220 216 220 238 229 214 195 187 209 226 226 217 213 218 229 209 185 206 249 273 258 236 237 248 257 240 190 146 157 167 261
211 212 200 189 193 203 213 218 220 203 217 220 227 225 225 232 231 217 200 188 209 228 234 232 228 227 230 214 197 200 228 249 243 260 276 285 269 249 219 195 190 194 214
211 201 202 202 208 213 212 211 213 212 212 223 232 236 235 236 235 226 208 195 206 218 228 235 236 234 235 228 216 212 228 223 208 217 250 273 282 267 239 219 207 199 207
189 194 210 214 219 215 200 213 212 203 211 228 235 245 245 242 234 234 222 215 208 208 230 234 234 233 233 232 227 230 227 208 185 199 229 251 255 258 251 237 230 227 224
189 208 219 217 219 208 200 206 215 211 214 227 229 239 249 244 237 236 232 231 225 222 236 239 235 232 233 234 235 228 214 193 188 212 231 243 242 243 240 233 237 242 269
197 215 216 210 221 219 217 212 209 216 220 225 231 238 245 249 243 238 230 232 231 235 242 245 239 232 220 227 231 232 222 211 207 220 234 244 242 238 235 217 221 231 269
201 210 213 212 211 217 222 223 218 222 217 220 231 230 230 241 241 230 221 224 219 218 199 181 204 214 221 234 238 235 224 217 225 226 224 238 242 243 245 222 210 212 231
202 210 211 212 213 211 219 253 251 237 242 238 240 236 242 247 248 231 230 232 225 199 179 207 226 226 224 226 228 233 227 223 222 219 220 223 229 236 242 232 222 223 238
205 209 207 207 207 211 216 220 252 279 263 253 255 256 254 253 247 237 232 226 211 185 201 219 228 232 231 227 225 225 231 230 221 217 221 226 229 231 231 233 233 237 246
202 209 207 207 209 212 216 221 224 235 258 268 261 256 262 260 248 237 225 193 206 209 222 226 230 234 233 231 229 228 230 228 223 225 226 227 224 223 227 231 233 239 246
200 206 208 208 209 214 216 218 224 232 240 254 274 271 264 259 254 239 197 199 214 224 229 233 233 234 235 231 231 227 224 225 226 224 227 228 222 217 226 231 232 237 246
207 211 207 204 206 211 216 221 226 230 237 244 250 253 252 225 233 232 220 225 228 232 234 235 235 235 235 232 231 230 228 229 227 229 230 228 224 218 224 230 229 230 239
209 214 214 215 213 216 219 224 229 230 235 243 247 247 232 222 228 232 231 233 236 237 237 236 235 236 236 233 230 230 230 231 229 228 229 228 221 220 223 224 225 227 233
205 209 209 213 218 221 225 226 229 232 236 242 252 252 245 239 237 240 240 241 239 239 237 233 235 237 233 228 226 227 229 232 231 228 228 227 222 221 219 220 221 223 226
205 211 217 221 221 226 230 230 231 233 239 243 246 248 243 243 247 246 245 245 243 244 243 238 238 242 244 237 231 225 225 226 226 222 219 221 219 217 218 220 222 223 224
210 214 220 225 225 224 228 233 234 235 238 242 246 249 249 250 253 255 255 254 250 249 247 243 243 245 243 241 239 236 234 232 226 220 210 211 214 218 218 218 222 223 224
211 218 222 225 227 230 234 237 237 237 238 242 244 250 255 255 257 258 256 254 253 254 255 253 251 249 246 242 240 239 237 231 227 222 212 206 210 213 216 219 222 224 225
218 223 227 228 229 232 234 236 239 240 240 243 244 248 254 256 255 255 255 254 255 258 259 259 257 256 254 248 243 238 234 229 224 221 215 206 209 216 216 220 221 221 221
Height
1539 1540 1540 1541 1542 1542 1543 1543 1544 1545 1545 1546 1546 1547 1547 1547 1547 1547 1547 1547 1547 1547 1547 1547 1547 1547 1547 1547 1547 1547 1547 1547 1546 1546 1546 1546 1545 1545 1544 1544 1543 1543 1542
1537 1538 1539 1539 1540 1541 1541 1542 1542 1543 1544 1544 1545 1545 1545 1546 1546 1546 1546 1545 1545 1545 1545 1545 1545 1545 1545 1545 1545 1545 1545 1545 1545 1544 1544 1544 1543 1543 1542 1542 1541 1541 1540
1535 1536 1537 1538 1538 1539 1540 1540 1541 1541 1542 1542 1543 1543 1543 1544 1544 1544 1544 1544 1543 1543 1543 1543 1543 1543 1543 1543 1543 1543 1543 1543 1543 1543 1542 1542 1541 1541 1540 1540 1539 1539 1538
1533 1534 1535 1535 1536 1537 1538 1538 1539 1539 1540 1540 1541 1541 1541 1541 1542 1542 1542 1541 1541 1541 1541 1541 1541 1541 1541 1541 1541 1541 1541 1541 1541 1541 1540 1539 1539 1538 1538 1537 1536 1536 1535
1531 1532 1532 1533 1534 1534 1535 1535 1536 1537 1537 1538 1539 1539 1539 1539 1539 1539 1539 1539 1539 1539 1539 1539 1539 1539 1539 1539 1539 1539 1539 1539 1538 1538 1538 1537 1536 1536 1535 1534 1534 1533 1533
1529 1530 1530 1531 1531 1532 1532 1533 1533 1534 1535 1536 1536 1536 1537 1537 1537 1537 1537 1537 1537 1537 1537 1537 1537 1537 1537 1537 1537 1537 1537 1536 1536 1535 1535 1534 1534 1533 1532 1532 1531 1530 1529
1527 1527 1528 1528 1529 1529 1530 1530 1531 1531 1532 1533 1533 1534 1534 1534 1534 1534 1534 1534 1534 1534 1534 1534 1534 1534 1534 1534 1534 1534 1534 1534 1534 1533 1532 1532 1531 1531 1530 1529 1529 1528 1527
1524 1525 1525 1526 1526 1527 1527 1527 1528 1529 1529 1530 1530 1531 1531 1531 1532 1532 1532 1532 1531 1531 1531 1531 1531 1531 1531 1531 1531 1531 1531 1530 1530 1530 1530 1529 1529 1528 1527 1527 1526 1525 1525
1521 1521 1522 1522 1523 1523 1524 1524 1524 1525 1526 1526 1527 1527 1527 1528 1528 1528 1528 1528 1528 1528 1528 1528 1528 1528 1528 1528 1528 1527 1527 1527 1527 1527 1526 1526 1525 1525 1524 1523 1522 1522 1520
1517 1518 1519 1519 1519 1520 1520 1520 1521 1521 1522 1522 1522 1523 1523 1524 1524 1524 1524 1524 1524 1524 1524 1524 1524 1524 1524 1524 1524 1524 1523 1523 1523 1523 1523 1522 1521 1521 1520 1519 1519 1518 1517
1514 1515 1515 1515 1516 1516 1517 1517 1517 1517 1518 1518 1518 1519 1519 1519 1520 1520 1520 1520 1520 1520 1520 1520 1520 1520 1520 1520 1520 1520 1519 1519 1519 1519 1518 1518 1517 1517 1516 1515 1515 1514 1513
1511 1511 1511 1512 1512 1512 1513 1513 1513 1513 1513 1513 1513 1514 1514 1515 1515 1515 1516 1516 1516 1516 1516 1516 1515 1516 1516 1516 1516 1515 1515 1515 1515 1514 1514 1513 1513 1512 1512 1511 1510 1510 1509
1506 1506 1507 1507 1508 1508 1508 1508 1508 1508 1508 1508 1508 1508 1509 1509 1510 1510 1510 1511 1511 1511 1511 1511 1511 1511 1511 1511 1511 1511 1511 1510 1510 1509 1509 1508 1508 1508 1507 1506 1506 1505 1505
1502 1502 1502 1503 1503 1503 1504 1503 1503 1503 1503 1503 1503 1503 1503 1504 1504 1505 1505 1505 1506 1506 1506 1506 1506 1506 1506 1506 1506 1506 1506 1506 1505 1505 1504 1504 1504 1503 1502 1501 1500 1500 1500
1497 1497 1497 1498 1498 1498 1498 1498 1498 1498 1498 1498 1498 1498 1498 1498 1499 1500 1500 1500 1500 1500 1500 1500 1500 1500 1500 1500 1500 1500 1500 1500 1500 1500 1499 1499 1499 1498 1497 1496 1496 1495 1494
1492 1492 1492 1493 1493 1493 1493 1493 1493 1494 1494 1494 1494 1493 1493 1493 1493 1494 1494 1495 1495 1495 1495 1494 1494 1494 1494 1494 1494 1494 1495 1494 1494 1494 1494 1494 1493 1493 1492 1491 1491 1490 1490
1487 1487 1487 1487 1488 1488 1488 1488 1488 1488 1489 1488 1488 1488 1488 1488 1488 1488 1488 1489 1489 1490 1489 1488 1488 1489 1488 1488 1488 1488 1488 1489 1489 1489 1488 1488 1488 1487 1487 1486 1486 1485 1484
1482 1482 1482 1482 1483 1483 1483 1483 1483 1483 1482 1482 1483 1483 1482 1482 1482 1482 1483 1483 1483 1483 1482 1482 1482 1483 1483 1482 1482 1482 1483 1483 1483 1483 1482 1482 1482 1481 1481 1480 1480 1480 1479
1477 1477 1478 1478 1478 1478 1478 1478 1478 1478 1477 1477 1477 1477 1477 1477 1477 1477 1477 1477 1476 1476 1476 1476 1477 1477 1477 1476 1476 1476 1476 1476 1476 1476 1476 1476 1476 1475 1475 1475 1475 1475 1474
1473 1473 1473 1473 1473 1473 1473 1473 1472 1472 1471 1471 1471 1471 1471 1471 1470 1470 1470 1470 1470 1470 1471 1471 1471 1471 1471 1470 1470 1470 1470 1470 1470 1470 1470 1470 1470 1469 1469 1469 1469 1469 1469
1468 1468 1468 1468 1468 1468 1467 1467 1467 1467 1466 1466 1465 1466 1466 1465 1465 1464 1464 1464 1464 1464 1464 1464 1464 1464 1465 1464 1464 1464 1464 1464 1464 1464 1464 1463 1463 1463 1463 1463 1464 1463 1463
1463 1463 1463 1463 1462 1462 1462 1462 1462 1461 1461 1461 1460 1461 1460 1460 1459 1459 1458 1458 1458 1458 1458 1458 1458 1459 1459 1458 1458 1458 1457 1457 1457 1457 1458 1457 1457 1457 1457 1457 1458 1458 1458
1458 1458 1458 1458 1458 1458 1457 1457 1457 1456 1456 1455 1455 1455 1455 1454 1453 1453 1453 1452 1452 1452 1452 1452 1452 1452 1452 1452 1452 1451 1451 1451 1451 1451 1451 1451 1451 1451 1451 1451 1452 1452 1452
1453 1453 1453 1453 1453 1452 1452 1452 1451 1451 1451 1450 1450 1450 1449 1449 1448 1447 1447 1447 1446 1446 1446 1446 1445 1445 1445 1445 1445 1445 1445 1445 1445 1445 1445 1445 1445 1445 1445 1445 1446 1446 1446
1448 1448 1448 1448 1447 1447 1447 1446 1446 1446 1445 1445 1445 1445 1444 1444 1443 1442 1442 1441 1441 1440 1440 1439 1439 1439 1439 1439 1439 1438 1439 1439 1439 1439 1439 1439 1439 1439 1439 1439 1439 1440 1440
1443 1443 1443 1443 1442 1442 1442 1441 1441 1441 1440 1440 1440 1439 1439 1438 1437 1436 1436 1435 1435 1434 1434 1433 1433 1433 1433 1432 1432 1432 1432 1432 1432 1433 1433 1432 1432 1432 1432 1433 1433 1433 1433